[[{"header":{"parameterUnit":"m.s-1","parameterCategory":2,"la1":30.2991,"la2":30.254,"lo1":-89.0895,"lo2":-89.0444,"dy":0.0017,"dx":0.0017,"nx":28,"ny":28,"refTime":"2023-08-15T03:00:00:Z","depth":"0","parameterNumber":2,"parameterNumberName":"U-component_of_CURRENTS"},"data":[0,0,0,0,0,0,0,0,0,0,0,0,0,0,0,0,0,0,0,0,0,0,0,0,0,0,0,0,0,0,0,0,0,0,0,0,0,0,0,0,0,0,0,0,0,0,0,0,0,0,0,0,0,0,0,0,0,0,0.2703,0.2704,0,0.2719,0.2719,0.2719,0.2659,0.2658,0.2656,0.2655,0.2606,0.2606,0.2606,0,0,0,0,0,0,0,0,0,0,0,0,0,0.2676,0.2676,0.2703,0.2704,0.2704,0.2719,0.2719,0.2719,0.2659,0.2658,0.2656,0.2654,0.2606,0.2606,0.2606,0,0,0,0,0,0,0,0,0,0,0,0,0,0.2686,0.2676,0.2703,0.2679,0.2678,0.2719,0.2719,0.2719,0.266,0.2658,0.2655,0.2653,0.2606,0.2606,0.2606,0.2648,0,0,0.2606,0.2606,0,0,0,0,0,0,0,0,0.2685,0.2686,0.2682,0.2681,0.2679,0.2688,0.2692,0.2693,0.266,0.2662,0.2655,0.2652,0.2632,0.2629,0.2632,0.2646,0.2644,0.2606,0.2606,0.2606,0.2606,0,0,0,0,0,0,0,0.2684,0.2686,0.2705,0.2683,0.2681,0.2687,0.2685,0.2692,0.2654,0.2662,0.2659,0.2667,0.2629,0.2633,0.2631,0.2643,0.2606,0.2606,0.2606,0.2606,0.2762,0.2765,0,0,0,0,0,0,0.269,0.2685,0.2705,0.2706,0.2682,0.2689,0.2687,0.2684,0.2656,0.2651,0.2669,0.2665,0.2634,0.2631,0.2629,0.2672,0.2606,0.2606,0.2606,0.2757,0.2762,0.2767,0,0,0,0,0,0,0.2689,0.2691,0.2704,0.27,0.2702,0.2692,0.269,0.2686,0.2683,0.2663,0.2655,0.2669,0.2632,0.2629,0.2648,0.2669,0.2606,0.2606,0.2753,0.2759,0.2765,0.2762,0,0,0,0,0,0,0.2688,0.2691,0.2694,0.27,0.2703,0.273,0.2692,0.2688,0.2694,0.2687,0.2661,0.2654,0.263,0.2649,0.2648,0.2668,0.2606,0.2747,0.2755,0.2763,0.2757,0.2767,0.2776,0,0,0,0,0,0.2687,0.2703,0.2694,0.2697,0.2706,0.2732,0.2734,0.2717,0.2696,0.2704,0.2695,0.2655,0.2699,0.2651,0.265,0.267,0.2744,0.2753,0.2762,0.2752,0.2765,0.2776,0,0,0,0,0,0,0.2704,0.2699,0.2689,0.2705,0.2718,0.2723,0.2733,0.2726,0.2727,0.2717,0.2688,0.2683,0.2715,0.2717,0.2666,0.2753,0.2724,0.2733,0.2717,0.2729,0.2738,0.2712,0.2606,0,0,0,0,0,0.271,0.2709,0.2718,0.2732,0.2737,0.2737,0.2746,0.2738,0.2742,0.2738,0.2725,0.2736,0.2759,0.2758,0.2779,0.2812,0.2846,0.2841,0.285,0.2858,0.2846,0.2934,0.2948,0.2797,0.2797,0.2797,0,0,0.2718,0.2721,0.2718,0.2734,0.2738,0.2751,0.2735,0.2753,0.2759,0.2736,0.2743,0.2763,0.2782,0.2818,0.2835,0.2812,0.2931,0.287,0.2874,0.2858,0.2945,0.2958,0.2971,0.2804,0.2803,0.2802,0,0,0.2745,0.2739,0.2747,0.2758,0.2774,0.2772,0.2779,0.2789,0.2785,0.2809,0.2806,0.2842,0.2863,0.2883,0.2896,0.2984,0.2984,0.3006,0.3011,0.3098,0.3109,0.3119,0.3211,0.3229,0.3003,0.3003,0.3003,0,0.2759,0.2766,0.276,0.2778,0.2786,0.278,0.2798,0.2801,0.2818,0.2825,0.2812,0.2884,0.2893,0.2945,0.2974,0.2996,0.3049,0.2945,0.3103,0.3114,0.3124,0.3215,0.3235,0.3004,0.3003,0.3003,0.3003,0,0.2794,0.2797,0.2809,0.2812,0.2823,0.2842,0.2844,0.2854,0.2848,0.2855,0.2905,0.2935,0.2976,0.3002,0.2999,0.309,0.3108,0.3102,0.3051,0.3137,0.3231,0.3251,0.3005,0.3005,0.3004,0.3004,0,0,0.2824,0.2828,0.2829,0.2833,0.2841,0.2856,0.2864,0.2879,0.2893,0.2911,0.2944,0.2995,0.3013,0.3035,0.3061,0.3122,0.3249,0.3135,0.3139,0.3187,0.3452,0.3413,0.3431,0.3263,0.3266,0.3269,0.3497,0,0.285,0.2883,0.2872,0.2892,0.2907,0.2895,0.2905,0.2917,0.2927,0.2959,0.299,0.3037,0.3027,0.3061,0.312,0.3211,0.3299,0.3188,0.3395,0.3402,0.3322,0.3452,0.3236,0.3415,0.3517,0.352,0.3523,0,0.2888,0.2901,0.2926,0.2929,0.2933,0.2942,0.2956,0.2967,0.2996,0.3009,0.3046,0.3071,0.3152,0.3144,0.3323,0.3251,0.3359,0.3427,0.3438,0.3405,0.3399,0.3346,0.3448,0.3205,0.3554,0.3552,0.3549,0,0.2925,0.2937,0.2954,0.2958,0.2963,0.2968,0.297,0.2989,0.3001,0.3051,0.3075,0.3154,0.3217,0.3331,0.3445,0.3406,0.3652,0.3624,0.37,0.37,0.3557,0.3537,0.3405,0.3791,0.379,0.379,0.3789,0,0.2963,0.2977,0.2971,0.2987,0.2999,0.2999,0.3017,0.3029,0.3058,0.3081,0.3111,0.3158,0.3269,0.3394,0.3493,0.3656,0.3706,0.3727,0.3762,0.3557,0.3536,0.3348,0.3324,0.3798,0.3796,0.3795,0.3793,0,0.3003,0.3001,0.3022,0.3025,0.3019,0.3035,0.3028,0.304,0.3073,0.3111,0.3129,0.3206,0.3349,0.347,0.3683,0.3731,0.3764,0.3943,0.3692,0.3691,0.3484,0.3473,0.3447,0.339,0.4054,0.4055,0.4055,0,0.3022,0.304,0.3047,0.3039,0.3035,0.304,0.303,0.3047,0.3056,0.3131,0.3152,0.3292,0.3398,0.367,0.3761,0.3951,0.3802,0.3851,0.3728,0.3457,0.3471,0.337,0.3316,0.3566,0.3562,0.3559,0.3557,0,0.3049,0.3055,0.3061,0.3053,0.3041,0.3027,0.3022,0.3033,0.3056,0.3112,0.3212,0.3319,0.3527,0.3585,0.3778,0.3847,0.359,0.3797,0.3573,0.3133,0.2961,0.2924,0.3442,0.353,0.3533,0.3535,0.3536,0.3537,0.305,0.3057,0.3054,0.3044,0.3026,0.3001,0.2972,0.299,0.3024,0.3049,0.3193,0.3258,0.3301,0.353,0.3604,0.3379,0.3518,0.3198,0.3236,0.3176,0.3008,0.3474,0.3554,0.3556,0.3559,0.3561,0.3563,0,0.3032,0.3034,0.3028,0.3001,0.2966,0.297,0.2938,0.2889,0.2911,0.2964,0.3051,0.2981,0.2966,0.2957,0.2846,0.2777,0.2708,0.2633,0.237,0.2377,0.2806,0.2655,0.2469,0.2469,0.2469,0.2469,0.247,0.247,0.3015,0.3002,0.3,0.2936,0.291,0.2817,0.2785,0.2734,0.2722,0.2631,0.255,0.2573,0.2479,0.2301,0.2088,0.2081,0.1956,0.189,0.1977,0.2137,0.2187,0.2234,0.2071,0.1766,0.1766,0.1345,0.1342,0.1339]},{"header":{"parameterUnit":"m.s-1","parameterCategory":2,"la1":30.2991,"la2":30.254,"lo1":-89.0895,"lo2":-89.0444,"dy":0.0017,"dx":0.0017,"nx":28,"ny":28,"refTime":"2023-08-15T03:00:00:Z","depth":"0","parameterNumber":3,"parameterNumberName":"V-component_of_CURRENTS"},"data":[0,0,0,0,0,0,0,0,0,0,0,0,0,0,0,0,0,0,0,0,0,0,0,0,0,0,0,0,0,0,0,0,0,0,0,0,0,0,0,0,0,0,0,0,0,0,0,0,0,0,0,0,0,0,0,0,0,0,-0.0779,-0.0779,0,-0.0721,-0.072,-0.0719,-0.0634,-0.0633,-0.0632,-0.0631,-0.0471,-0.0468,-0.0465,0,0,0,0,0,0,0,0,0,0,0,0,0,-0.077,-0.0771,-0.0779,-0.0779,-0.0779,-0.0721,-0.072,-0.0718,-0.0635,-0.0633,-0.0632,-0.0631,-0.0472,-0.0468,-0.0464,0,0,0,0,0,0,0,0,0,0,0,0,0,-0.0746,-0.0771,-0.0779,-0.0733,-0.0728,-0.0721,-0.072,-0.0718,-0.0635,-0.0633,-0.0631,-0.063,-0.0473,-0.0468,-0.0464,-0.0467,0,0,-0.0449,-0.0447,0,0,0,0,0,0,0,0,-0.0747,-0.0745,-0.074,-0.0736,-0.0731,-0.0687,-0.0658,-0.063,-0.0635,-0.0666,-0.0631,-0.0629,-0.0537,-0.0527,-0.0516,-0.0459,-0.0452,-0.0448,-0.0445,-0.0443,-0.0442,0,0,0,0,0,0,0,-0.0749,-0.0747,-0.0752,-0.074,-0.0734,-0.0698,-0.0693,-0.0652,-0.0607,-0.0663,-0.0658,-0.0658,-0.0533,-0.0521,-0.0511,-0.045,-0.0449,-0.0444,-0.0441,-0.0439,-0.0373,-0.0374,0,0,0,0,0,0,-0.0769,-0.075,-0.0754,-0.0751,-0.0739,-0.07,-0.0694,-0.0699,-0.0609,-0.0596,-0.066,-0.0655,-0.053,-0.0517,-0.0505,-0.0468,-0.0443,-0.0439,-0.0436,-0.0372,-0.0373,-0.0375,0,0,0,0,0,0,-0.0769,-0.077,-0.0756,-0.0751,-0.0747,-0.0703,-0.0709,-0.0699,-0.0687,-0.0608,-0.0592,-0.0658,-0.0528,-0.0512,-0.0481,-0.0462,-0.0437,-0.0432,-0.0371,-0.0372,-0.0374,-0.0416,0,0,0,0,0,0,-0.0769,-0.077,-0.0782,-0.0753,-0.0749,-0.0762,-0.0711,-0.0699,-0.0692,-0.0684,-0.0602,-0.0585,-0.0525,-0.0489,-0.0476,-0.0455,-0.0428,-0.0369,-0.0371,-0.0373,-0.0413,-0.0419,-0.0424,0,0,0,0,0,-0.0769,-0.0804,-0.0783,-0.0784,-0.0766,-0.0764,-0.0758,-0.0717,-0.0694,-0.0698,-0.0646,-0.0588,-0.0493,-0.0487,-0.0471,-0.0448,-0.0368,-0.0371,-0.0373,-0.0411,-0.0418,-0.0424,0,0,0,0,0,0,-0.0824,-0.0798,-0.0774,-0.0804,-0.0786,-0.0751,-0.076,-0.0731,-0.0696,-0.0686,-0.0607,-0.0588,-0.0551,-0.0512,-0.0507,-0.0441,-0.0419,-0.0419,-0.0453,-0.0459,-0.0464,-0.0467,-0.0424,0,0,0,0,0,-0.084,-0.0848,-0.0819,-0.0845,-0.0839,-0.08,-0.0795,-0.0767,-0.0735,-0.0717,-0.0661,-0.0604,-0.0552,-0.0518,-0.0475,-0.0444,-0.0426,-0.0421,-0.0427,-0.0431,-0.0427,-0.0411,-0.0414,-0.0383,-0.0383,-0.0383,0,0,-0.0872,-0.0859,-0.0866,-0.0856,-0.0838,-0.0821,-0.0792,-0.0795,-0.0767,-0.0706,-0.0663,-0.0625,-0.0554,-0.0512,-0.0491,-0.0473,-0.0436,-0.0435,-0.0438,-0.0432,-0.0414,-0.0417,-0.0419,-0.0385,-0.0385,-0.0384,0,0,-0.0927,-0.0927,-0.0935,-0.0916,-0.0893,-0.0864,-0.0869,-0.0834,-0.0805,-0.0774,-0.0716,-0.0681,-0.0605,-0.0548,-0.0507,-0.0524,-0.0473,-0.0507,-0.0519,-0.0504,-0.0505,-0.0507,-0.0506,-0.0506,-0.05,-0.05,-0.05,0,-0.0968,-0.0957,-0.0943,-0.0933,-0.0911,-0.0883,-0.0868,-0.0843,-0.0801,-0.0771,-0.0766,-0.0662,-0.0615,-0.0539,-0.0546,-0.053,-0.0523,-0.0493,-0.0509,-0.051,-0.051,-0.0508,-0.0509,-0.0502,-0.0502,-0.0502,-0.0501,0,-0.0998,-0.0985,-0.0997,-0.0955,-0.094,-0.0935,-0.0887,-0.0867,-0.0833,-0.0792,-0.0737,-0.0691,-0.0621,-0.0606,-0.0576,-0.0545,-0.0542,-0.0524,-0.0488,-0.0516,-0.0513,-0.0512,-0.0506,-0.0505,-0.0504,-0.0503,0,0,-0.109,-0.1026,-0.1025,-0.0977,-0.0941,-0.092,-0.0892,-0.0837,-0.0784,-0.0769,-0.07,-0.0658,-0.0641,-0.0598,-0.0561,-0.0553,-0.0566,-0.0546,-0.0544,-0.0538,-0.0546,-0.0479,-0.0472,-0.0551,-0.0551,-0.0551,-0.0548,0,-0.1107,-0.1068,-0.1038,-0.0987,-0.0949,-0.0905,-0.0863,-0.0813,-0.0765,-0.0698,-0.0668,-0.0599,-0.0631,-0.0587,-0.0596,-0.0555,-0.0565,-0.0569,-0.0526,-0.0525,-0.0455,-0.0468,-0.0361,-0.0343,-0.0547,-0.0547,-0.0547,0,-0.1124,-0.1084,-0.1036,-0.0938,-0.092,-0.0889,-0.079,-0.0748,-0.0669,-0.0631,-0.0594,-0.0559,-0.0536,-0.0558,-0.0555,-0.0557,-0.0568,-0.056,-0.0559,-0.0476,-0.0455,-0.0346,-0.0334,-0.0376,-0.0546,-0.0546,-0.0546,0,-0.1136,-0.1073,-0.102,-0.0992,-0.0897,-0.0859,-0.0809,-0.0727,-0.0656,-0.0583,-0.0523,-0.0512,-0.046,-0.0502,-0.0505,-0.0531,-0.0493,-0.0519,-0.0477,-0.0474,-0.0361,-0.0346,-0.0372,-0.0532,-0.0532,-0.0532,-0.0532,0,-0.1137,-0.1088,-0.1013,-0.0976,-0.0884,-0.084,-0.0735,-0.0683,-0.0589,-0.0483,-0.0489,-0.0399,-0.0443,-0.0418,-0.0477,-0.0461,-0.0477,-0.0478,-0.0461,-0.0375,-0.0363,-0.0376,-0.0419,-0.0532,-0.0532,-0.0532,-0.0532,0,-0.1126,-0.1093,-0.1009,-0.0917,-0.0879,-0.0807,-0.0675,-0.0588,-0.0531,-0.0392,-0.0366,-0.03,-0.0266,-0.0307,-0.0322,-0.0377,-0.038,-0.0386,-0.0287,-0.0259,-0.0279,-0.0328,-0.0327,-0.0296,-0.0363,-0.0361,-0.0359,0,-0.1097,-0.1061,-0.0956,-0.0888,-0.0836,-0.0728,-0.0637,-0.0558,-0.0459,-0.0315,-0.0235,-0.0162,-0.0069,-0.0077,-0.0133,-0.0199,-0.0272,-0.0173,-0.021,-0.0259,-0.0302,-0.0352,-0.0331,-0.0094,-0.009,-0.0087,-0.0085,0,-0.1019,-0.0999,-0.092,-0.0803,-0.0705,-0.0587,-0.0464,-0.038,-0.0267,-0.0145,0.0015,0.0092,0.0121,0.0162,0.0086,0.0016,-0.0154,-0.0116,-0.0181,-0.0103,-0.0142,-0.0109,-0.0142,-0.0059,-0.0062,-0.0064,-0.0065,-0.0066,-0.0941,-0.0871,-0.0784,-0.0663,-0.0565,-0.0439,-0.033,-0.0189,-0.0015,0.0205,0.0232,0.0425,0.0403,0.0344,0.0239,0.0117,0.0044,0.0061,-0.0,-0.0053,0.0,0.0018,0.0133,0.0132,0.0131,0.0129,0.0128,0,-0.08,-0.0736,-0.0634,-0.0494,-0.0381,-0.0362,-0.0191,-0.0062,0.0165,0.0392,0.0567,0.0727,0.0698,0.0557,0.0369,0.025,0.019,0.0166,0.0109,0.0121,0.0139,0.0176,0.0326,0.0326,0.0326,0.0326,0.0326,0.0326,-0.0708,-0.0582,-0.0538,-0.0337,-0.0257,-0.0102,-0.0006,0.0186,0.0374,0.0703,0.0901,0.1002,0.0902,0.0521,0.0285,0.0232,0.0146,0.0154,0.0065,0.0053,0.0037,0.0022,0.0046,0.0166,0.0166,0.012,0.0119,0.0118]}],[{"header":{"parameterUnit":"m.s-1","parameterCategory":2,"la1":30.2991,"la2":30.254,"lo1":-89.0895,"lo2":-89.0444,"dy":0.0017,"dx":0.0017,"nx":28,"ny":28,"refTime":"2023-08-15T03:00:00:Z","depth":"2","parameterNumber":2,"parameterNumberName":"U-component_of_CURRENTS"},"data":[0,0,0,0,0,0,0,0,0,0,0,0,0,0,0,0,0,0,0,0,0,0,0,0,0,0,0,0,0,0,0,0,0,0,0,0,0,0,0,0,0,0,0,0,0,0,0,0,0,0,0,0,0,0,0,0,0,0,0.1363,0.1362,0,0.1342,0.1342,0.1341,0.1383,0.1384,0.1386,0.1387,0.1509,0.1511,0.1513,0,0,0,0,0,0,0,0,0,0,0,0,0,0.1426,0.1425,0.1363,0.1362,0.1362,0.1342,0.1342,0.1341,0.1383,0.1384,0.1386,0.1387,0.1508,0.1511,0.1513,0,0,0,0,0,0,0,0,0,0,0,0,0,0.1402,0.1424,0.1363,0.1379,0.138,0.1342,0.1342,0.1341,0.1383,0.1384,0.1386,0.1388,0.1507,0.1511,0.1514,0.1496,0,0,0.1523,0.1525,0,0,0,0,0,0,0,0,0.1404,0.14,0.1377,0.1378,0.1379,0.1366,0.1409,0.14,0.1382,0.1383,0.1387,0.1389,0.1472,0.1478,0.147,0.1501,0.1507,0.1524,0.1525,0.1527,0.1528,0,0,0,0,0,0,0,0.1405,0.1401,0.1356,0.1376,0.1378,0.1383,0.1382,0.1407,0.1421,0.1383,0.1386,0.1381,0.1474,0.1467,0.1474,0.1508,0.1523,0.1526,0.1528,0.1529,0.1662,0.1664,0,0,0,0,0,0,0.1403,0.1402,0.1356,0.1355,0.1395,0.1381,0.1379,0.1369,0.1418,0.1425,0.1379,0.1383,0.146,0.147,0.1478,0.1599,0.1527,0.153,0.1531,0.166,0.1662,0.1664,0,0,0,0,0,0,0.1405,0.1399,0.1357,0.1378,0.1373,0.1377,0.1366,0.1368,0.1386,0.1413,0.1424,0.1399,0.1462,0.1474,0.1514,0.1599,0.1531,0.1534,0.1658,0.1661,0.1663,0.1752,0,0,0,0,0,0,0.1406,0.14,0.141,0.1377,0.1371,0.1371,0.1364,0.1366,0.1378,0.1384,0.1433,0.1444,0.1465,0.1509,0.1517,0.1603,0.1536,0.1656,0.166,0.1662,0.1747,0.1758,0.1766,0,0,0,0,0,0.1409,0.1424,0.141,0.1406,0.1379,0.1372,0.1371,0.138,0.1378,0.1401,0.1415,0.1444,0.1536,0.1511,0.1521,0.161,0.1655,0.1659,0.1662,0.1743,0.1756,0.1766,0,0,0,0,0,0,0.1468,0.1428,0.1413,0.1418,0.1407,0.1379,0.1404,0.1388,0.1411,0.1426,0.1442,0.1454,0.1533,0.1538,0.151,0.1654,0.161,0.1616,0.1669,0.1681,0.169,0.1712,0.1539,0,0,0,0,0,0.1477,0.148,0.1439,0.145,0.1446,0.1421,0.1423,0.142,0.1422,0.1435,0.1461,0.1498,0.1548,0.1585,0.1621,0.168,0.1733,0.1748,0.1758,0.1766,0.1789,0.1936,0.1962,0.1676,0.1676,0.1676,0,0,0.1503,0.1484,0.1485,0.1463,0.1457,0.1473,0.143,0.1442,0.1476,0.1445,0.1516,0.1529,0.1566,0.1646,0.1685,0.1667,0.1872,0.1771,0.1778,0.1797,0.1943,0.1971,0.1996,0.1679,0.1678,0.1678,0,0,0.1564,0.1538,0.1564,0.1557,0.1547,0.1529,0.1535,0.1515,0.1537,0.1567,0.1577,0.1632,0.1681,0.1744,0.1776,0.1855,0.1912,0.1871,0.1951,0.2093,0.2119,0.2142,0.2236,0.2267,0.1883,0.1883,0.1883,0,0.1607,0.1615,0.1576,0.1602,0.1607,0.156,0.1593,0.1605,0.1606,0.1632,0.1613,0.1712,0.1744,0.1865,0.1894,0.1889,0.1951,0.1907,0.211,0.2134,0.2157,0.2248,0.2281,0.1888,0.1887,0.1887,0.1886,0,0.1681,0.1693,0.1713,0.1725,0.1729,0.1748,0.1739,0.176,0.1757,0.1766,0.1859,0.1882,0.1952,0.1975,0.1959,0.2135,0.212,0.2104,0.2089,0.2192,0.2279,0.2313,0.1895,0.1893,0.1892,0.189,0,0,0.1763,0.1764,0.1774,0.1789,0.1789,0.1795,0.1854,0.1887,0.1938,0.196,0.2051,0.2124,0.2127,0.2163,0.217,0.2276,0.2478,0.2257,0.2262,0.2363,0.2774,0.2596,0.2614,0.2505,0.2511,0.2516,0.2767,0,0.1838,0.1898,0.1879,0.1941,0.1963,0.1937,0.1994,0.2022,0.2045,0.2124,0.2173,0.2259,0.2208,0.2251,0.2357,0.2436,0.2571,0.241,0.2647,0.2654,0.2495,0.2649,0.231,0.2491,0.28,0.2805,0.2809,0,0.1919,0.194,0.2013,0.2028,0.2038,0.2079,0.2135,0.2177,0.2264,0.2291,0.2376,0.2399,0.2545,0.2492,0.2728,0.2625,0.2729,0.2784,0.2796,0.2625,0.2538,0.2439,0.2539,0.2865,0.286,0.2856,0.2853,0,0.1986,0.2029,0.2087,0.2097,0.2123,0.2163,0.2182,0.2243,0.2281,0.2418,0.2459,0.2611,0.2693,0.2847,0.2912,0.2865,0.3157,0.3117,0.3067,0.3054,0.2808,0.2761,0.3359,0.3358,0.3358,0.3357,0.3356,0,0.2056,0.2099,0.2129,0.2161,0.2228,0.2231,0.231,0.2349,0.2427,0.2503,0.2562,0.2643,0.2791,0.2923,0.3009,0.3112,0.3257,0.3123,0.3131,0.2821,0.2775,0.312,0.3088,0.3366,0.3364,0.3362,0.3361,0,0.2109,0.2136,0.2196,0.2244,0.2262,0.2314,0.2347,0.24,0.2466,0.2575,0.2625,0.2729,0.2874,0.2977,0.3221,0.3212,0.3345,0.3362,0.2947,0.2899,0.3133,0.3103,0.3369,0.3366,0.3363,0.336,0.3358,0,0.2134,0.218,0.2251,0.2282,0.2307,0.2362,0.2397,0.244,0.2491,0.261,0.2677,0.2813,0.2845,0.3052,0.3057,0.3168,0.3327,0.2989,0.2841,0.3166,0.3148,0.3122,0.3098,0.2565,0.2556,0.255,0.2544,0,0.2164,0.2208,0.2242,0.2315,0.2366,0.2393,0.245,0.2463,0.2536,0.2577,0.265,0.2668,0.2765,0.2651,0.2737,0.2778,0.292,0.2848,0.3381,0.2571,0.2416,0.2393,0.2395,0.2482,0.2488,0.2493,0.2496,0.2499,0.2171,0.2201,0.2258,0.2318,0.2371,0.2387,0.2344,0.2382,0.238,0.2341,0.2489,0.2384,0.2408,0.2275,0.2282,0.2313,0.2529,0.249,0.2509,0.2537,0.2355,0.2199,0.219,0.2195,0.2198,0.2202,0.2205,0,0.2138,0.2186,0.2243,0.2285,0.2301,0.2362,0.2343,0.2229,0.214,0.2136,0.2086,0.1839,0.1708,0.1804,0.1685,0.173,0.1704,0.1747,0.168,0.174,0.1794,0.1573,0.1203,0.12,0.1198,0.1196,0,0,0.2113,0.2148,0.2179,0.219,0.2227,0.2148,0.2088,0.1925,0.1827,0.1613,0.1505,0.1506,0.163,0.1334,0.1333,0.125,0.1489,0.1206,0.1992,0.1963,0.2014,0.2191,0.1914,0,0,0,0,0]},{"header":{"parameterUnit":"m.s-1","parameterCategory":2,"la1":30.2991,"la2":30.254,"lo1":-89.0895,"lo2":-89.0444,"dy":0.0017,"dx":0.0017,"nx":28,"ny":28,"refTime":"2023-08-15T03:00:00:Z","depth":"2","parameterNumber":3,"parameterNumberName":"V-component_of_CURRENTS"},"data":[0,0,0,0,0,0,0,0,0,0,0,0,0,0,0,0,0,0,0,0,0,0,0,0,0,0,0,0,0,0,0,0,0,0,0,0,0,0,0,0,0,0,0,0,0,0,0,0,0,0,0,0,0,0,0,0,0,0,-0.0301,-0.0301,0,-0.0345,-0.0346,-0.0346,-0.0382,-0.0382,-0.0383,-0.0383,-0.0333,-0.0332,-0.033,0,0,0,0,0,0,0,0,0,0,0,0,0,-0.0265,-0.0265,-0.0301,-0.0301,-0.0302,-0.0345,-0.0346,-0.0346,-0.0382,-0.0382,-0.0383,-0.0383,-0.0334,-0.0332,-0.033,0,0,0,0,0,0,0,0,0,0,0,0,0,-0.0291,-0.0265,-0.0301,-0.0326,-0.0328,-0.0345,-0.0346,-0.0346,-0.0382,-0.0382,-0.0383,-0.0383,-0.0335,-0.0332,-0.033,-0.03,0,0,-0.0322,-0.0321,0,0,0,0,0,0,0,0,-0.0289,-0.0292,-0.0321,-0.0324,-0.0327,-0.0359,-0.0315,-0.0327,-0.0381,-0.036,-0.0383,-0.0384,-0.0333,-0.0331,-0.0338,-0.0298,-0.0296,-0.0321,-0.032,-0.0319,-0.0318,0,0,0,0,0,0,0,-0.0287,-0.029,-0.0317,-0.0322,-0.0326,-0.0341,-0.0345,-0.0318,-0.034,-0.0362,-0.0365,-0.0371,-0.0334,-0.034,-0.0337,-0.0295,-0.0321,-0.0319,-0.0318,-0.0317,-0.0226,-0.0225,0,0,0,0,0,0,-0.0282,-0.0288,-0.0316,-0.0319,-0.0311,-0.0341,-0.0346,-0.0348,-0.0343,-0.0344,-0.0371,-0.0373,-0.0345,-0.034,-0.0335,-0.0278,-0.0319,-0.0316,-0.0315,-0.0226,-0.0225,-0.0224,0,0,0,0,0,0,-0.0281,-0.0284,-0.0314,-0.0306,-0.0311,-0.0341,-0.0343,-0.0348,-0.0365,-0.035,-0.0349,-0.0384,-0.0345,-0.0339,-0.0328,-0.0277,-0.0315,-0.0313,-0.0227,-0.0226,-0.0225,-0.0177,0,0,0,0,0,0,-0.028,-0.0283,-0.029,-0.0305,-0.0311,-0.0314,-0.0342,-0.0349,-0.0368,-0.0371,-0.036,-0.0357,-0.0345,-0.0332,-0.0325,-0.0274,-0.0311,-0.0228,-0.0227,-0.0225,-0.0179,-0.0174,-0.0169,0,0,0,0,0,-0.0278,-0.0274,-0.029,-0.0294,-0.0317,-0.0313,-0.0317,-0.034,-0.0368,-0.0362,-0.0375,-0.0358,-0.0316,-0.033,-0.0322,-0.0268,-0.0229,-0.0227,-0.0225,-0.0182,-0.0175,-0.0169,0,0,0,0,0,0,-0.0263,-0.0278,-0.0295,-0.0298,-0.0304,-0.0319,-0.0324,-0.0344,-0.0353,-0.036,-0.0358,-0.0354,-0.0321,-0.0311,-0.0327,-0.024,-0.0264,-0.026,-0.0233,-0.0227,-0.0222,-0.0193,-0.0309,0,0,0,0,0,-0.0263,-0.0266,-0.0278,-0.0283,-0.0285,-0.0309,-0.0317,-0.0328,-0.0337,-0.0343,-0.0343,-0.0333,-0.0304,-0.0284,-0.0265,-0.0221,-0.021,-0.0179,-0.0174,-0.017,-0.0142,-0.01,-0.0088,-0.0218,-0.0218,-0.0218,0,0,-0.0263,-0.0271,-0.0275,-0.028,-0.0293,-0.027,-0.0315,-0.0318,-0.0295,-0.0332,-0.0314,-0.032,-0.0294,-0.0249,-0.0229,-0.0233,-0.0133,-0.0167,-0.0164,-0.0138,-0.0096,-0.0083,-0.0072,-0.0217,-0.0217,-0.0217,0,0,-0.0246,-0.0265,-0.0256,-0.0246,-0.0254,-0.0256,-0.0256,-0.0272,-0.0276,-0.0265,-0.0279,-0.0261,-0.0236,-0.0195,-0.0171,-0.0125,-0.0117,-0.0123,-0.0056,-0.0015,-0.0003,0.0007,0.0013,0.0024,-0.0108,-0.0108,-0.0108,0,-0.0251,-0.023,-0.0252,-0.0225,-0.0209,-0.0244,-0.0209,-0.0208,-0.022,-0.0204,-0.025,-0.0204,-0.0194,-0.0105,-0.0097,-0.0104,-0.0106,-0.008,-0.0006,0.0004,0.0014,0.0018,0.0029,-0.0105,-0.0105,-0.0106,-0.0106,0,-0.0208,-0.0192,-0.0181,-0.0154,-0.0137,-0.0115,-0.0105,-0.0097,-0.012,-0.0115,-0.0074,-0.0084,-0.005,-0.0041,-0.0055,0.0034,-0.0001,-0.0015,-0.0019,0.0031,0.003,0.0041,-0.0102,-0.0102,-0.0103,-0.0104,0,0,-0.0221,-0.0165,-0.0162,-0.0126,-0.0094,-0.0071,-0.0023,0.0021,0.0061,0.004,0.0096,0.012,0.009,0.0114,0.01,0.0138,0.0187,0.0089,0.009,0.0101,0.0246,0.0216,0.0224,0.0175,0.0177,0.018,0.0209,0,-0.0186,-0.0119,-0.0095,-0.0018,0.0023,0.004,0.0096,0.0134,0.0144,0.0188,0.0192,0.0223,0.016,0.0162,0.0194,0.0186,0.0221,0.0179,0.0193,0.0194,0.0166,0.0239,0.0171,0.0192,0.0219,0.0221,0.0222,0,-0.0144,-0.0103,-0.003,0.0067,0.0087,0.0123,0.0211,0.0258,0.0323,0.0331,0.0359,0.0343,0.0387,0.0316,0.0348,0.0314,0.0292,0.0282,0.0282,0.0255,0.0186,0.0152,0.0211,0.0241,0.0239,0.0238,0.0237,0,-0.0127,-0.0046,0.0012,0.0043,0.0136,0.0168,0.0211,0.0286,0.034,0.0404,0.0437,0.0474,0.0479,0.0472,0.0419,0.0383,0.0452,0.0402,0.0363,0.0358,0.0309,0.0296,0.0454,0.0454,0.0454,0.0454,0.0454,0,-0.0075,-0.0025,0.0011,0.0052,0.0125,0.0181,0.0263,0.0316,0.04,0.0479,0.0487,0.0548,0.0516,0.0534,0.048,0.0455,0.0496,0.0403,0.0385,0.0319,0.0307,0.0357,0.0345,0.0455,0.0455,0.0455,0.0455,0,-0.0038,-0.002,0.005,0.012,0.0133,0.0181,0.0271,0.0343,0.0409,0.0508,0.0525,0.0608,0.0632,0.0603,0.0606,0.0531,0.0513,0.0497,0.0404,0.0375,0.037,0.036,0.0458,0.0458,0.0458,0.0457,0.0457,0,-0.0001,0.0033,0.008,0.0104,0.0126,0.0187,0.0238,0.0321,0.04,0.0545,0.0604,0.0669,0.0752,0.0745,0.0618,0.0546,0.0553,0.0429,0.0367,0.0409,0.0381,0.0371,0.0362,0.0302,0.0301,0.03,0.0299,0,0.0083,0.0072,0.0129,0.0155,0.0183,0.0261,0.0332,0.0412,0.0525,0.0639,0.0816,0.0902,0.0838,0.0762,0.0624,0.0549,0.043,0.0402,0.0509,0.0311,0.0265,0.0236,0.0232,0.0288,0.0289,0.029,0.0291,0.0291,0.0136,0.0173,0.0208,0.0244,0.0272,0.0371,0.0476,0.0573,0.075,0.0917,0.0965,0.1045,0.0885,0.0707,0.0565,0.0363,0.0392,0.0304,0.0307,0.0311,0.0288,0.0244,0.0257,0.0258,0.0258,0.0259,0.026,0,0.0239,0.0257,0.0302,0.0365,0.044,0.0416,0.0572,0.0687,0.091,0.0965,0.1105,0.0978,0.0875,0.0681,0.035,0.0209,0.0179,0.017,0.0146,0.0157,0.0166,0.0134,0.0063,0.0062,0.0062,0.0062,0,0,0.0299,0.0371,0.0392,0.0521,0.0553,0.0666,0.0779,0.0902,0.0972,0.1091,0.1074,0.1087,0.0865,0.061,0.04,0.0211,0.0219,0.0177,0.0339,0.0342,0.0354,0.0238,0.02,0,0,0,0,0]}],[{"header":{"parameterUnit":"m.s-1","parameterCategory":2,"la1":30.2991,"la2":30.254,"lo1":-89.0895,"lo2":-89.0444,"dy":0.0017,"dx":0.0017,"nx":28,"ny":28,"refTime":"2023-08-15T03:00:00:Z","depth":"4","parameterNumber":2,"parameterNumberName":"U-component_of_CURRENTS"},"data":[0,0,0,0,0,0,0,0,0,0,0,0,0,0,0,0,0,0,0,0,0,0,0,0,0,0,0,0,0,0,0,0,0,0,0,0,0,0,0,0,0,0,0,0,0,0,0,0,0,0,0,0,0,0,0,0,0,0,-0.0218,-0.0218,0,-0.0194,-0.0194,-0.0193,-0.0183,-0.0183,-0.0183,-0.0183,-0.0188,-0.0188,-0.0188,0,0,0,0,0,0,0,0,0,0,0,0,0,-0.0226,-0.0226,-0.0218,-0.0218,-0.0217,-0.0194,-0.0194,-0.0193,-0.0183,-0.0183,-0.0183,-0.0183,-0.0188,-0.0188,-0.0188,0,0,0,0,0,0,0,0,0,0,0,0,0,-0.0214,-0.0226,-0.0218,-0.021,-0.0209,-0.0194,-0.0194,-0.0193,-0.0183,-0.0183,-0.0183,-0.0183,-0.0188,-0.0188,-0.0188,-0.0185,0,0,-0.0188,-0.0188,0,0,0,0,0,0,0,0,-0.0214,-0.0213,-0.0211,-0.021,-0.0209,-0.0192,-0.0198,-0.0192,-0.0183,-0.0192,-0.0183,-0.0183,-0.0192,-0.0192,-0.0186,-0.0186,-0.0186,-0.0188,-0.0188,-0.0188,-0.0188,0,0,0,0,0,0,0,-0.0215,-0.0214,-0.0208,-0.0211,-0.021,-0.0197,-0.0196,-0.0197,-0.0192,-0.0191,-0.0191,-0.0189,-0.0192,-0.0186,-0.0186,-0.0186,-0.0188,-0.0188,-0.0188,-0.0188,-0.0069,-0.0066,0,0,0,0,0,0,-0.0221,-0.0215,-0.0209,-0.0207,-0.0213,-0.0197,-0.0196,-0.0197,-0.0191,-0.019,-0.0189,-0.0188,-0.0186,-0.0186,-0.0186,-0.0013,-0.0188,-0.0188,-0.0188,-0.0072,-0.0068,-0.0065,0,0,0,0,0,0,-0.0221,-0.0221,-0.021,-0.0211,-0.0209,-0.0197,-0.0199,-0.0196,-0.0184,-0.0189,-0.0189,-0.0178,-0.0186,-0.0186,-0.0117,-0.002,-0.0188,-0.0188,-0.0076,-0.0071,-0.0067,0.0225,0,0,0,0,0,0,-0.0221,-0.0221,-0.0226,-0.0211,-0.0209,-0.0187,-0.0198,-0.0196,-0.0184,-0.0183,-0.018,-0.0181,-0.0186,-0.0116,-0.0117,-0.0023,-0.0188,-0.008,-0.0074,-0.0068,0.0211,0.0239,0.0263,0,0,0,0,0,-0.0222,-0.0224,-0.0227,-0.0226,-0.0216,-0.0187,-0.0183,-0.0176,-0.0183,-0.0167,-0.0123,-0.018,-0.008,-0.0112,-0.0114,-0.0018,-0.0083,-0.0075,-0.0069,0.02,0.0233,0.0262,0,0,0,0,0,0,-0.0229,-0.0222,-0.0225,-0.0226,-0.0203,-0.0185,-0.0176,-0.0171,-0.0129,-0.0125,-0.0127,-0.0122,-0.0026,-0.0078,-0.0114,0.0027,-0.0098,-0.009,0.0107,0.0138,0.0163,0.0191,-0.0188,0,0,0,0,0,-0.0234,-0.0237,-0.0218,-0.0218,-0.0206,-0.0191,-0.0181,-0.0171,-0.0135,-0.0119,-0.0088,-0.0062,-0.0002,0.0024,0.0045,0.0121,0.0025,0.0171,0.0197,0.022,0.0238,0.0173,0.0195,-0.0041,-0.0041,-0.0041,0,0,-0.0241,-0.0236,-0.024,-0.022,-0.0205,-0.0146,-0.0184,-0.0161,-0.0064,-0.0126,0.0018,0.0026,0.0035,0.0153,0.0186,0.0127,0.024,0.0229,0.025,0.0255,0.0183,0.0206,0.0226,-0.0036,-0.0037,-0.0038,0,0,-0.0236,-0.0243,-0.0233,-0.0202,-0.0174,-0.0133,-0.0121,-0.0073,-0.0005,0.013,0.0121,0.0194,0.028,0.0323,0.0353,0.0514,0.0376,0.0506,0.0676,0.0615,0.0634,0.0649,0.0574,0.058,0.0525,0.0525,0.0526,0,-0.0236,-0.0218,-0.0223,-0.0182,-0.0128,-0.0114,-0.0042,0.004,0.0123,0.0207,0.0213,0.0369,0.0379,0.0518,0.0616,0.058,0.0503,0.0573,0.0651,0.0664,0.0674,0.0592,0.0596,0.054,0.0538,0.0537,0.0536,0,-0.0205,-0.018,-0.0164,-0.0087,-0.0023,0.0027,0.0148,0.0249,0.0352,0.0434,0.0604,0.0644,0.072,0.0758,0.0775,0.0869,0.0776,0.069,0.0579,0.0716,0.0621,0.0619,0.0562,0.0556,0.0552,0.0548,0,0,-0.0199,-0.0153,-0.0138,-0.0081,0.0035,0.01,0.0298,0.0475,0.0578,0.0733,0.0865,0.1058,0.1034,0.1062,0.1043,0.1047,0.1099,0.0941,0.0931,0.088,0.0953,0.0895,0.0885,0.1022,0.1023,0.1024,0.0861,0,-0.0156,-0.0086,-0.0037,0.0107,0.0171,0.029,0.047,0.0637,0.0771,0.0897,0.1008,0.1101,0.1161,0.117,0.1214,0.1103,0.1105,0.115,0.0814,0.0804,0.0748,0.0886,0.1028,0.0859,0.0858,0.0857,0.0857,0,-0.0108,-0.0063,0.0054,0.0209,0.0257,0.0384,0.0639,0.0778,0.0967,0.1059,0.1183,0.12,0.1312,0.1266,0.1247,0.1269,0.1162,0.1076,0.1064,0.0907,0.0745,0.0683,0.0851,0.0851,0.0852,0.0852,0.0852,0,-0.0087,0.0028,0.013,0.0182,0.0359,0.0502,0.0634,0.0844,0.0941,0.1103,0.1132,0.1267,0.1272,0.1234,0.1144,0.1186,0.1007,0.1,0.0848,0.0838,0.0803,0.0787,0.0938,0.0938,0.0939,0.0939,0.094,0,-0.004,0.0043,0.0149,0.0209,0.038,0.0518,0.0697,0.0842,0.0961,0.1036,0.1173,0.1196,0.126,0.1181,0.1115,0.0981,0.0977,0.091,0.0813,0.0929,0.093,0.0801,0.0787,0.0933,0.0934,0.0936,0.0937,0,-0.0028,0.0023,0.014,0.0318,0.0383,0.0517,0.0693,0.0768,0.0907,0.0974,0.1014,0.1126,0.1098,0.1058,0.0929,0.0906,0.0765,0.0673,0.0781,0.0683,0.066,0.0663,0.0591,0.0589,0.0586,0.0584,0.0582,0,-0.0021,0.0029,0.0182,0.0237,0.033,0.0498,0.0579,0.0743,0.0785,0.092,0.0914,0.0939,0.1004,0.0791,0.0776,0.0632,0.0602,0.0525,0.0705,0.0723,0.0634,0.0641,0.0647,0.0578,0.0578,0.0577,0.0576,0,-0.0008,0.0042,0.0113,0.02,0.0302,0.0392,0.0518,0.0541,0.07,0.0788,0.0837,0.0853,0.0794,0.0778,0.0621,0.0522,0.0614,0.0501,0.051,0.0679,0.0705,0.0621,0.063,0.0568,0.0569,0.057,0.057,0,-0.0012,0.0023,0.0079,0.0175,0.0241,0.029,0.0381,0.0454,0.0525,0.0692,0.0685,0.0726,0.079,0.0706,0.0556,0.0479,0.0537,0.0543,0.0551,0.056,0.063,0.0664,0.0459,0,0,0,0,0,-0.0008,0.0003,0.0042,0.0128,0.0165,0.0223,0.032,0.0395,0.0533,0.0549,0.064,0.0606,0.0579,0.0575,0.0493,0.0511,0.0485,0.0412,0.0484,0.052,0.053,0.0618,0,0,0,0,0,0,-0.0015,0.0013,0.0016,0.0035,0.0079,0.0128,0.0196,0.0292,0.0329,0.0475,0.0447,0.0564,0.0501,0.0602,0.0479,0.0469,0.0503,0.0429,0.0427,0.0515,0.0524,0.0532,0.0625,0,0,0,0,0]},{"header":{"parameterUnit":"m.s-1","parameterCategory":2,"la1":30.2991,"la2":30.254,"lo1":-89.0895,"lo2":-89.0444,"dy":0.0017,"dx":0.0017,"nx":28,"ny":28,"refTime":"2023-08-15T03:00:00:Z","depth":"4","parameterNumber":3,"parameterNumberName":"V-component_of_CURRENTS"},"data":[0,0,0,0,0,0,0,0,0,0,0,0,0,0,0,0,0,0,0,0,0,0,0,0,0,0,0,0,0,0,0,0,0,0,0,0,0,0,0,0,0,0,0,0,0,0,0,0,0,0,0,0,0,0,0,0,0,0,0.0528,0.0528,0,0.0526,0.0526,0.0526,0.0532,0.0532,0.0532,0.0532,0.0482,0.048,0.0479,0,0,0,0,0,0,0,0,0,0,0,0,0,0.0463,0.0464,0.0528,0.0528,0.0528,0.0526,0.0526,0.0526,0.0532,0.0532,0.0532,0.0532,0.0482,0.048,0.0478,0,0,0,0,0,0,0,0,0,0,0,0,0,0.0479,0.0465,0.0528,0.053,0.053,0.0526,0.0526,0.0526,0.0532,0.0532,0.0532,0.0533,0.0483,0.048,0.0478,0.046,0,0,0.0471,0.047,0,0,0,0,0,0,0,0,0.0479,0.0482,0.053,0.053,0.053,0.0529,0.0484,0.0501,0.0532,0.0532,0.0532,0.0533,0.0492,0.0489,0.049,0.0458,0.0456,0.0471,0.047,0.0469,0.0468,0,0,0,0,0,0,0,0.0477,0.0482,0.0528,0.053,0.053,0.0505,0.0509,0.0487,0.051,0.0532,0.0532,0.0531,0.0492,0.0492,0.0489,0.0455,0.0471,0.0469,0.0468,0.0467,0.0467,0.0469,0,0,0,0,0,0,0.0481,0.0481,0.0528,0.0527,0.0504,0.0507,0.051,0.0529,0.0512,0.051,0.0531,0.0531,0.0496,0.0491,0.0487,0.0496,0.0469,0.0467,0.0466,0.0466,0.0468,0.0469,0,0,0,0,0,0,0.048,0.0486,0.0528,0.0502,0.0506,0.0508,0.0529,0.0529,0.0538,0.0511,0.0508,0.0541,0.0496,0.049,0.0523,0.0493,0.0466,0.0464,0.0465,0.0467,0.0469,0.0494,0,0,0,0,0,0,0.0478,0.0486,0.0503,0.0503,0.0507,0.0535,0.0529,0.0529,0.0536,0.0537,0.0518,0.0513,0.0495,0.0527,0.0521,0.0489,0.0462,0.0463,0.0465,0.0468,0.0492,0.0497,0.0502,0,0,0,0,0,0.0476,0.0498,0.0505,0.051,0.0532,0.0536,0.0536,0.0537,0.0537,0.0546,0.0568,0.0515,0.0537,0.0528,0.052,0.0487,0.0462,0.0465,0.0468,0.049,0.0496,0.0501,0,0,0,0,0,0,0.0478,0.0501,0.0508,0.0537,0.0541,0.0537,0.0546,0.0543,0.0564,0.057,0.0551,0.0549,0.0554,0.0538,0.0528,0.0499,0.0481,0.0483,0.05,0.0506,0.0511,0.0532,0.046,0,0,0,0,0,0.0488,0.0513,0.0522,0.0545,0.0551,0.055,0.0553,0.0552,0.0566,0.0575,0.0588,0.0583,0.0556,0.0552,0.0542,0.0539,0.0503,0.051,0.0515,0.0518,0.0535,0.042,0.0414,0.0479,0.0479,0.0479,0,0,0.0495,0.0509,0.0524,0.0546,0.0552,0.0581,0.0553,0.0562,0.0594,0.0564,0.0636,0.0604,0.0564,0.0565,0.0561,0.0549,0.0498,0.0522,0.0525,0.054,0.0422,0.0415,0.0409,0.0481,0.0481,0.0481,0,0,0.051,0.0537,0.0558,0.0576,0.0587,0.0598,0.0604,0.0627,0.0644,0.0699,0.0666,0.0636,0.0657,0.0598,0.0568,0.0594,0.0527,0.0584,0.0618,0.0506,0.0498,0.0491,0.0498,0.0491,0.0583,0.0583,0.0583,0,0.0518,0.0558,0.0562,0.0591,0.0625,0.0614,0.0656,0.0667,0.0708,0.0718,0.0739,0.0703,0.0662,0.0589,0.0611,0.0594,0.0573,0.059,0.0507,0.0498,0.049,0.0499,0.049,0.0585,0.0585,0.0585,0.0585,0,0.0558,0.0592,0.0608,0.0661,0.0693,0.0724,0.0751,0.079,0.0821,0.0818,0.0799,0.0752,0.0726,0.0679,0.0663,0.0569,0.0592,0.052,0.0481,0.0484,0.0496,0.0486,0.0587,0.0587,0.0586,0.0586,0,0,0.0585,0.0628,0.0644,0.0685,0.0741,0.0778,0.0835,0.0868,0.0876,0.0899,0.0888,0.0832,0.0787,0.0752,0.0675,0.0576,0.0512,0.0547,0.054,0.0541,0.0359,0.0345,0.0334,0.0413,0.0411,0.0408,0.0411,0,0.0623,0.0669,0.0715,0.0811,0.0835,0.0891,0.0953,0.0977,0.0969,0.096,0.0862,0.0839,0.0814,0.0785,0.0679,0.0529,0.0482,0.0525,0.0371,0.0369,0.0338,0.0318,0.0399,0.0404,0.0402,0.04,0.0399,0,0.0654,0.0685,0.0777,0.0867,0.09,0.1024,0.1104,0.1136,0.1086,0.1062,0.0989,0.0912,0.0803,0.0762,0.0563,0.0597,0.0521,0.0411,0.0406,0.0373,0.0333,0.0387,0.0382,0.0383,0.0385,0.0386,0.0387,0,0.0639,0.0735,0.0825,0.0868,0.098,0.1118,0.1209,0.1209,0.1182,0.1138,0.1078,0.095,0.0882,0.073,0.0571,0.0566,0.0334,0.0283,0.0222,0.0226,0.0226,0.0233,0.0166,0.0166,0.0166,0.0166,0.0166,0,0.0651,0.073,0.0876,0.0943,0.1124,0.1191,0.1329,0.1361,0.1292,0.1206,0.1159,0.1021,0.0862,0.0705,0.0574,0.0385,0.0356,0.0242,0.0197,0.0252,0.0261,0.0224,0.023,0.0166,0.0166,0.0166,0.0166,0,0.0634,0.0709,0.084,0.1033,0.1135,0.1293,0.1455,0.1431,0.1421,0.129,0.1281,0.1079,0.0886,0.0732,0.0472,0.0399,0.0207,0.0165,0.0326,0.0289,0.0198,0.0207,0.0101,0.01,0.0099,0.0098,0.0097,0,0.0625,0.068,0.092,0.105,0.1217,0.1428,0.1499,0.1529,0.144,0.1275,0.1153,0.0995,0.0858,0.0533,0.0371,0.0191,0.0151,0.0158,0.011,0.0211,0.0178,0.0188,0.0197,0.0096,0.0095,0.0095,0.0095,0,0.061,0.0725,0.0824,0.1047,0.1251,0.1379,0.1494,0.142,0.1338,0.1308,0.1039,0.0888,0.0666,0.0458,0.0367,0.0202,0.0188,0.0147,0.0147,0.0102,0.0203,0.0174,0.0184,0.0092,0.0092,0.0092,0.0093,0,0.0626,0.068,0.0794,0.1052,0.1227,0.1299,0.1377,0.1295,0.1229,0.1038,0.0939,0.0744,0.0649,0.0458,0.0308,0.0212,0.0168,0.0179,0.0177,0.018,0.0183,0.0322,0.0207,0,0,0,0,0,0.0597,0.0637,0.0773,0.1008,0.1154,0.1266,0.13,0.1299,0.1222,0.1024,0.0984,0.0773,0.0545,0.0423,0.0315,0.0271,0.0156,0.0147,0.017,0.0073,0.0077,0.0061,0,0,0,0,0,0,0.0573,0.0648,0.0706,0.0904,0.1045,0.115,0.1177,0.1124,0.1019,0.0949,0.0813,0.0791,0.0553,0.0611,0.0324,0.029,0.0301,0.0052,0.0051,0.0071,0.0075,0.0078,0.0063,0,0,0,0,0]}]]